Location: St. Louis
(38.6270°N, 90.1994°W)
Time: 22:43:42
(UTC-06:00)

AAUSAT CUBESAT 2 - Visible Passes

Search period start: 27 January 2022 00:00
Search period end: 06 February 2022 00:00
Orbit: 571 x 585 km, 97.5° (Epoch: 27 January)

Date Brightness Start Highest point End Pass type
(mag) Time Alt. Az. Time Alt. Az. Time Alt. Az.
27 Jan ? 05:20:19 10° N 05:29:54 - SSW 05:24:22 60° WNW visible
28 Jan ? 03:52:07 10° ENE 03:52:53 11° E 03:52:53 11° E visible
28 Jan ? 05:24:51 10° N 05:28:52 52° WNW 05:29:12 51° W visible
29 Jan ? 03:56:00 10° ENE 04:02:46 - SSE 03:57:43 12° E visible
29 Jan ? 05:29:24 10° N 05:33:20 46° WNW 05:34:02 41° WSW visible
30 Jan ? 04:00:05 10° ENE 04:02:19 14° E 04:02:34 14° E visible
30 Jan ? 05:33:56 10° N 05:37:48 40° WNW 05:38:54 33° WSW visible
31 Jan ? 04:04:15 10° NE 04:06:50 16° E 04:07:27 16° ESE visible
31 Jan ? 05:38:29 10° N 05:42:15 36° WNW 05:43:47 26° WSW visible
01 Feb ? 04:08:29 10° NE 04:11:21 18° E 04:12:21 17° ESE visible
01 Feb ? 05:43:02 10° N 05:46:42 32° WNW 05:48:40 21° WSW visible
02 Feb ? 04:12:45 10° NE 04:15:50 20° E 04:17:16 17° ESE visible
02 Feb ? 05:47:36 10° NNW 05:51:08 28° WNW 05:53:36 16° WSW visible
03 Feb ? 04:17:02 10° NE 04:20:20 23° E 04:22:15 17° SE visible
03 Feb ? 05:52:11 10° NNW 05:55:34 25° WNW 05:58:35 12° WSW visible
04 Feb ? 04:21:22 10° NE 04:24:49 26° E 04:27:17 15° SE visible
04 Feb ? 05:56:46 10° NNW 05:59:59 23° WNW 06:03:11 10° WSW visible
05 Feb ? 04:25:42 10° NE 04:29:17 29° E 04:32:29 12° SSE visible
05 Feb ? 06:01:22 10° NNW 06:04:24 20° WNW 06:07:24 10° WSW visible
